FW0271 Weather Reports


time (UTC)temp
C
wind
direction
speed
KPH
gust
KPH
rain 1hr
cm
rain 24hr
cm
rain mn
cm
humidity
%
barometer
mb
20260906131519 21 139 0.0 4.8 0.00 0.05 0.00 98 1015.4
20260906131018 21 338 0.0 4.8 0.00 0.05 0.00 98 1015.3
20260906130515 21 165 0.0 3.2 0.00 0.05 0.00 98 1015.3
20260906130013 21 314 0.0 1.6 0.00 0.05 0.00 98 1015.2
20260906125513 21 134 0.0 3.2 0.00 0.05 0.00 98 1015.1
20260906125013 21 22 0.0 4.8 0.00 0.05 0.00 98 1014.9
20260906124514 21 284 0.0 4.8 0.00 0.05 0.00 98 1015.0
20260906124014 21 116 0.0 1.6 0.00 0.05 0.00 98 1014.9
20260906123513 21 115 0.0 3.2 0.00 0.05 0.00 98 1015.0
20260906123013 21 142 0.0 3.2 0.00 0.05 0.00 98 1015.0
20260906122513 21 354 0.0 3.2 0.00 0.05 0.00 98 1014.9
20260906122013 21 315 0.0 3.2 0.00 0.05 0.00 98 1015.0
20260906121513 21 95 0.0 1.6 0.00 0.05 0.00 98 1014.9
20260906121013 21 340 0.0 1.6 0.00 0.05 0.00 98 1014.8
20260906120516 21 204 0.0 1.6 0.00 0.05 0.00 98 1014.9
20260906120511 21 55 0.0 1.6 0.00 0.05 0.00 98 1014.9
20260906115511 21 205 0.0 1.6 0.00 0.05 0.00 98 1014.8
20260906115011 21 238 0.0 1.6 0.00 0.05 0.00 98 1014.8
20260906114509 21 149 0.0 1.6 0.00 0.05 0.00 98 1014.8
20260906114010 21 153 0.0 1.6 0.00 0.05 0.00 98 1014.7
20260906113509 21 152 0.0 1.6 0.00 0.05 0.00 98 1014.5
20260906113010 21 152 0.0 1.6 0.00 0.05 0.00 98 1014.5
20260906112510 21 155 0.0 1.6 0.00 0.05 0.00 98 1014.3
20260906112009 21 155 0.0 3.2 0.00 0.05 0.00 98 1014.2
20260906111509 21 155 0.0 3.2 0.00 0.05 0.00 98 1014.2
20260906111008 21 30 0.0 1.6 0.00 0.05 0.00 97 1014.1
20260906110508 21 358 0.0 0.0 0.00 0.05 0.00 97 1013.9
20260906110012 21 359 0.0 0.0 0.00 0.05 0.00 97 1013.7
20260906110008 21 358 0.0 0.0 0.00 0.05 0.00 97 1013.7
20260906105624 21 358 0.0 0.0 0.00 0.05 0.00 97 1013.7
20260906104508 21 358 0.0 0.0 0.00 0.05 0.00 97 1013.7
20260906104011 21 358 0.0 0.0 0.00 0.05 0.00 97 1013.6
20260906104007 21 358 0.0 0.0 0.00 0.05 0.00 97 1013.7
20260906103006 21 358 0.0 1.6 0.00 0.05 0.00 97 1013.7
20260906102503 21 358 0.0 1.6 0.00 0.05 0.00 97 1013.6
20260906102004 21 359 0.0 0.0 0.00 0.05 0.00 97 1013.6
20260906101511 21 358 0.0 1.6 0.00 0.05 0.00 96 1013.7
20260906101504 21 359 0.0 1.6 0.00 0.05 0.00 96 1013.6
20260906101004 21 359 0.0 1.6 0.00 0.05 0.00 96 1013.7
20260906100003 21 358 0.0 1.6 0.00 0.05 0.00 96 1013.6
20260906095503 22 358 0.0 1.6 0.00 0.05 0.00 96 1013.5
20260906095001 22 359 0.0 0.0 0.00 0.05 0.00 96 1013.5
20260906094502 22 358 0.0 0.0 0.00 0.05 0.00 96 1013.4
20260906094002 22 359 0.0 0.0 0.00 0.05 0.00 96 1013.3
20260906093503 22 358 0.0 0.0 0.00 0.05 0.00 96 1013.2
20260906093003 22 358 0.0 0.0 0.00 0.05 0.00 96 1013.1
20260906092501 22 359 0.0 0.0 0.00 0.05 0.00 96 1013.1
20260906092001 22 358 0.0 0.0 0.00 0.05 0.00 96 1013.2
20260906091502 22 358 0.0 0.0 0.00 0.05 0.00 95 1013.2
20260906090959 22 358 0.0 0.0 0.00 0.05 0.00 95 1013.2
20260906090459 22 359 0.0 1.6 0.00 0.05 0.00 95 1013.2
20260906090000 22 358 0.0 1.6 0.00 0.05 0.00 95 1013.3
20260906085501 22 358 0.0 1.6 0.00 0.05 0.00 95 1013.3
20260906085001 22 359 0.0 1.6 0.00 0.05 0.00 95 1013.2
20260906084459 22 354 0.0 1.6 0.00 0.05 0.00 95 1013.2
20260906084001 23 355 0.0 1.6 0.00 0.05 0.00 95 1013.2
20260906083500 23 31 0.0 1.6 0.00 0.05 0.00 95 1013.2
20260906083000 23 30 0.0 1.6 0.00 0.05 0.00 95 1013.1
20260906082457 23 30 0.0 1.6 0.00 0.05 0.00 95 1013.1
20260906081959 23 30 0.0 1.6 0.00 0.05 0.00 95 1013.1
20260906081500 23 31 0.0 1.6 0.00 0.05 0.00 95 1013.1
20260906081455 23 17 0.0 1.6 0.00 0.05 0.00 95 1013.1
20260906080454 23 17 0.0 1.6 0.00 0.05 0.00 95 1013.0
20260906075953 23 18 0.0 1.6 0.00 0.05 0.00 95 1013.0
20260906075449 23 18 0.0 1.6 0.00 0.05 0.00 95 1013.0
20260906074950 23 18 0.0 1.6 0.00 0.05 0.00 94 1013.1
20260906074451 23 13 0.0 0.0 0.00 0.05 0.00 94 1013.0
20260906073949 23 13 0.0 0.0 0.00 0.05 0.00 94 1013.0
20260906073447 23 13 0.0 3.2 0.00 0.05 0.00 94 1013.0
20260906072947 23 13 0.0 3.2 0.00 0.05 0.00 95 1013.0
20260906072445 23 57 0.0 3.2 0.00 0.05 0.00 95 1013.0
20260906071947 23 56 0.0 3.2 0.00 0.05 0.00 95 1013.1
20260906071447 23 26 0.0 1.6 0.00 0.05 0.00 94 1013.0
20260906071443 23 26 0.0 1.6 0.00 0.05 0.00 94 1013.1
20260906070441 23 26 0.0 1.6 0.00 0.05 0.00 94 1013.0
20260906065939 24 26 0.0 1.6 0.00 0.05 0.00 94 1013.1
20260906065439 24 26 0.0 1.6 0.00 0.05 0.00 94 1013.1
20260906064937 24 26 0.0 1.6 0.00 0.05 0.00 94 1013.1
20260906064434 24 26 0.0 0.0 0.00 0.05 0.00 94 1013.1
20260906063932 24 26 0.0 1.6 0.00 0.05 0.00 94 1013.1
20260906063928 25 27 0.0 1.6 0.00 0.05 0.00 93 1013.0
20260906063531 25 26 0.0 1.6 0.00 0.05 0.00 94 1013.1
20260906062427 25 27 0.0 3.2 0.00 0.05 0.00 93 1013.0
20260906061931 25 354 0.0 3.2 0.00 0.05 0.00 93 1013.0
20260906061926 25 27 0.0 3.2 0.00 0.05 0.00 93 1013.0
20260906061420 25 342 1.6 3.2 0.00 0.05 0.00 93 1013.0
20260906060417 25 22 1.6 3.2 0.00 0.05 0.00 93 1013.0
20260906055915 25 316 1.6 6.4 0.00 0.05 0.00 93 1013.0
20260906055413 26 328 1.6 6.4 0.00 0.05 0.00 93 1013.0
20260906054911 26 246 1.6 4.8 0.00 0.05 0.00 93 1013.0
20260906054412 26 57 1.6 4.8 0.00 0.05 0.00 93 1013.0
20260906053911 26 16 1.6 4.8 0.00 0.05 0.00 94 1013.1
20260906053409 26 123 1.6 6.4 0.00 0.05 0.00 94 1013.1
20260906052906 26 277 0.0 8.0 0.00 0.05 0.00 94 1013.0
20260906052407 26 39 0.0 8.0 0.00 0.05 0.00 95 1013.0
20260906051907 25 27 1.6 6.4 0.00 0.05 0.00 95 1012.9
20260906051406 25 26 1.6 6.4 0.00 0.05 0.00 96 1012.9
20260906050910 25 53 0.0 4.8 0.00 0.05 0.00 97 1012.8
20260906050905 25 322 1.6 4.8 0.00 0.05 0.00 97 1012.8
20260906045859 25 338 0.0 0.0 0.00 0.05 0.05 96 1012.8
20260906045401 25 337 0.0 0.0 0.00 0.05 0.05 96 1012.7
20260906044858 25 338 0.0 1.6 0.00 0.05 0.05 97 1012.6
20260906044403 25 338 0.0 1.6 0.00 0.05 0.05 97 1012.7
20260906044358 25 338 0.0 1.6 0.00 0.05 0.05 97 1012.6
20260906043354 25 337 0.0 1.6 0.00 0.05 0.05 97 1012.6
20260906042855 24 338 0.0 0.0 0.00 0.05 0.05 97 1012.5
20260906042353 25 338 0.0 0.0 0.00 0.05 0.05 97 1012.5
20260906041852 25 337 0.0 0.0 0.00 0.05 0.05 97 1012.4
20260906041350 25 338 0.0 0.0 0.00 0.05 0.05 97 1012.4
20260906040848 25 337 0.0 0.0 0.00 0.05 0.05 97 1012.4
20260906040348 25 337 0.0 0.0 0.00 0.05 0.05 97 1012.3
20260906035849 25 337 0.0 0.0 0.00 0.05 0.05 97 1012.3
20260906035845 25 338 0.0 0.0 0.00 0.05 0.05 97 1012.2
20260906034844 25 338 0.0 0.0 0.00 0.05 0.05 96 1012.2
20260906034341 25 337 0.0 0.0 0.00 0.05 0.05 96 1012.1
20260906033839 25 338 0.0 0.0 0.00 0.05 0.05 96 1012.1
20260906033341 25 338 0.0 0.0 0.00 0.05 0.05 96 1012.1
20260906032840 25 338 0.0 0.0 0.00 0.05 0.05 96 1012.0
20260906032337 25 338 0.0 0.0 0.00 0.05 0.05 96 1012.0
20260906031837 25 338 0.0 0.0 0.00 0.05 0.05 96 1012.0
20260906031337 25 337 0.0 0.0 0.00 0.05 0.05 96 1011.9
20260906030835 25 337 0.0 0.0 0.00 0.05 0.05 96 1011.9
20260906030336 25 338 0.0 0.0 0.00 0.05 0.05 96 1011.9
20260906025832 25 337 0.0 0.0 0.00 0.05 0.05 96 1011.8
20260906025332 25 338 0.0 0.0 0.00 0.05 0.05 96 1011.8
20260906024831 25 338 0.0 0.0 0.00 0.05 0.05 96 1011.7
20260906024328 25 337 0.0 0.0 0.00 0.05 0.05 96 1011.7
20260906023829 25 338 0.0 0.0 0.00 0.05 0.05 95 1011.7
20260906023324 25 337 0.0 0.0 0.00 0.05 0.05 95 1011.6
20260906022824 25 337 0.0 0.0 0.00 0.05 0.05 95 1011.4
20260906022322 25 338 0.0 0.0 0.00 0.05 0.05 95 1011.5
20260906021819 25 337 0.0 0.0 0.00 0.05 0.05 95 1011.4
20260906021316 25 338 0.0 0.0 0.00 0.05 0.05 95 1011.4
20260906020822 25 337 0.0 0.0 0.00 0.05 0.05 95 1011.2
20260906020817 25 338 0.0 0.0 0.00 0.05 0.05 95 1011.4
20260906015812 25 338 0.0 0.0 0.00 0.05 0.05 95 1011.2
20260906015313 25 337 0.0 0.0 0.00 0.05 0.05 95 1011.1
20260906014815 25 338 0.0 0.0 0.00 0.05 0.05 95 1011.0
20260906014811 25 338 0.0 0.0 0.00 0.05 0.05 95 1010.9
20260906013808 26 337 0.0 0.0 0.00 0.05 0.05 94 1010.9
20260906013308 26 338 0.0 0.0 0.00 0.05 0.05 94 1010.9
20260906012807 26 338 0.0 0.0 0.00 0.05 0.05 94 1010.9
20260906012307 26 338 0.0 0.0 0.00 0.05 0.05 94 1010.8
20260906011804 26 338 0.0 0.0 0.00 0.05 0.05 94 1010.8
20260906011302 26 337 0.0 0.0 0.00 0.05 0.05 94 1010.7
20260906010803 26 337 0.0 0.0 0.00 0.05 0.05 94 1010.7
20260906010301 26 337 0.0 0.0 0.00 0.05 0.05 93 1010.6
20260906005800 26 338 0.0 0.0 0.00 0.05 0.05 92 1010.5
20260906005258 26 338 0.0 0.0 0.00 0.05 0.05 92 1010.4
20260906004756 26 337 0.0 0.0 0.00 0.05 0.05 92 1010.4
20260906004257 26 338 0.0 0.0 0.00 0.05 0.05 91 1010.4
20260906003753 26 338 0.0 0.0 0.00 0.05 0.05 91 1010.4
20260906003258 26 337 0.0 0.0 0.00 0.05 0.05 90 1010.4
20260906003253 26 337 0.0 0.0 0.00 0.05 0.05 90 1010.4
20260906002250 26 338 0.0 0.0 0.00 0.05 0.05 89 1010.4
20260906001751 26 338 0.0 0.0 0.00 0.05 0.05 89 1010.4
20260906001249 26 338 0.0 0.0 0.00 0.05 0.05 89 1010.4
20260906000746 27 337 0.0 0.0 0.00 0.05 0.05 88 1010.4
20260906000244 27 337 0.0 0.0 0.00 0.05 0.05 89 1010.4
20260905235745 27 338 0.0 0.0 0.00 0.05 0.05 88 1010.5
20260905235243 27 337 0.0 0.0 0.00 0.05 0.05 88 1010.4
20260905234742 27 338 0.0 0.0 0.03 0.05 0.05 89 1010.4
20260905234241 27 338 0.0 0.0 0.05 0.05 0.05 88 1010.4
20260905233741 27 338 0.0 0.0 0.05 0.05 0.05 88 1010.4
20260905233243 27 338 0.0 0.0 0.05 0.05 0.05 88 1010.4
20260905232742 27 337 0.0 0.0 0.05 0.05 0.05 87 1010.4
20260905232241 27 338 0.0 1.6 0.05 0.05 0.05 87 1010.4
20260905231741 27 338 0.0 1.6 0.05 0.05 0.05 85 1010.4
20260905231243 27 335 0.0 3.2 0.05 0.05 0.05 84 1010.4
20260905230741 27 335 0.0 3.2 0.05 0.05 0.05 81 1010.4
20260905230240 28 316 0.0 3.2 0.05 0.05 0.05 80 1010.5
20260905225736 28 205 0.0 3.2 0.05 0.05 0.05 80 1010.5
20260905225236 28 225 0.0 3.2 0.05 0.05 0.05 78 1010.5
20260905224736 30 222 1.6 6.4 0.03 0.03 0.03 74 1010.7
20260905224233 31 326 3.2 8.0 0.00 0.00 0.00 70 1011.0
20260905223740 33 30 3.2 8.0 0.00 0.00 0.00 65 1010.8
20260905223735 32 342 3.2 8.0 0.00 0.00 0.00 67 1011.0
20260905222733 33 349 1.6 6.4 0.00 0.00 0.00 59 1010.6
20260905222232 34 342 0.0 1.6 0.00 0.00 0.00 58 1010.5
20260905221733 35 252 1.6 4.8 0.00 0.00 0.00 56 1010.4
20260905221231 35 20 1.6 4.8 0.00 0.00 0.00 53 1010.6
20260905220730 36 31 1.6 8.0 0.00 0.00 0.00 52 1010.6
20260905220229 37 11 1.6 8.0 0.00 0.00 0.00 50 1010.6
20260905215726 38 18 1.6 4.8 0.00 0.00 0.00 53 1010.4
20260905215227 38 132 0.0 3.2 0.00 0.00 0.00 52 1010.3
20260905214725 38 143 1.6 4.8 0.00 0.00 0.00 53 1010.3
20260905214223 38 71 1.6 6.4 0.00 0.00 0.00 51 1010.1
20260905213720 38 299 1.6 6.4 0.00 0.00 0.00 51 1010.1
20260905213219 38 295 1.6 4.8 0.00 0.00 0.00 51 1010.1
20260905212718 38 351 1.6 6.4 0.00 0.00 0.00 51 1010.2
20260905212218 38 212 1.6 6.4 0.00 0.00 0.00 50 1010.2
20260905211718 38 150 0.0 3.2 0.00 0.00 0.00 49 1010.2
20260905211218 38 255 0.0 4.8 0.00 0.00 0.00 51 1010.3
20260905210716 38 235 0.0 4.8 0.00 0.00 0.00 52 1010.3
20260905210215 39 195 0.0 3.2 0.00 0.00 0.00 52 1010.4
20260905205718 38 90 0.0 8.0 0.00 0.00 0.00 49 1010.5
20260905205713 38 89 0.0 3.2 0.00 0.00 0.00 48 1010.5
20260905204710 38 204 1.6 8.0 0.00 0.00 0.00 53 1010.4
20260905204213 38 301 0.0 3.2 0.00 0.00 0.00 50 1010.4
20260905204208 38 145 0.0 1.6 0.00 0.00 0.00 55 1010.6
20260905203813 38 146 0.0 1.6 0.00 0.00 0.00 51 1010.6
20260905202705 38 143 0.0 3.2 0.00 0.00 0.00 49 1010.5
20260905202206 38 200 0.0 3.2 0.00 0.00 0.00 49 1010.6
20260905201706 38 163 0.0 1.6 0.00 0.00 0.00 50 1010.7
20260905201206 39 230 0.0 8.0 0.00 0.00 0.00 48 1010.7
20260905200706 39 231 1.6 8.0 0.00 0.00 0.00 50 1010.7
20260905200207 38 205 1.6 11.3 0.00 0.00 0.00 47 1010.8
20260905200203 38 243 1.6 11.3 0.00 0.00 0.00 46 1010.9
20260905195200 38 68 1.6 8.0 0.00 0.00 0.00 43 1010.9
20260905194657 39 129 1.6 8.0 0.00 0.00 0.00 44 1010.9
20260905194157 39 95 0.0 8.0 0.00 0.00 0.00 49 1010.9
20260905193657 39 124 0.0 1.6 0.00 0.00 0.00 53 1011.0
20260905193158 39 194 0.0 1.6 0.00 0.00 0.00 50 1011.0
20260905192659 38 136 0.0 4.8 0.00 0.00 0.00 51 1011.1
20260905192203 38 154 1.6 4.8 0.00 0.00 0.00 52 1011.3
20260905192159 38 165 1.6 4.8 0.00 0.00 0.00 49 1011.2
20260905191203 38 214 3.2 9.7 0.00 0.00 0.00 50 1011.4
20260905191157 38 163 1.6 8.0 0.00 0.00 0.00 50 1011.4
20260905190203 38 108 1.6 8.0 0.00 0.00 0.00 50 1011.4
20260905190159 38 231 1.6 9.7 0.00 0.00 0.00 50 1011.4
20260905185157 38 358 1.6 8.0 0.00 0.00 0.00 51 1011.5
20260905184659 38 95 1.6 6.4 0.00 0.00 0.00 48 1011.5
20260905184158 38 228 1.6 4.8 0.00 0.00 0.00 49 1011.7
20260905183658 38 114 1.6 3.2 0.00 0.00 0.00 50 1011.8
20260905183158 38 131 1.6 6.4 0.00 0.00 0.00 49 1011.9
20260905182658 38 72 1.6 6.4 0.00 0.00 0.00 51 1011.9
20260905182203 38 212 1.6 9.7 0.00 0.00 0.00 49 1012.0
20260905182158 38 262 1.6 9.7 0.00 0.00 0.00 50 1012.0
20260905181814 38 72 1.6 3.2 0.00 0.00 0.00 50 1012.1
20260905180659 38 257 1.6 3.2 0.00 0.00 0.00 50 1012.1
20260905180158 38 44 0.0 3.2 0.00 0.00 0.00 52 1012.2
20260905175658 38 176 0.0 3.2 0.00 0.00 0.00 53 1012.1
20260905175159 38 32 0.0 3.2 0.00 0.00 0.00 54 1012.2
20260905174657 38 159 0.0 3.2 0.00 0.00 0.00 54 1012.1
20260905174159 37 155 0.0 3.2 0.00 0.00 0.00 57 1012.1
20260905173702 37 295 1.6 4.8 0.00 0.00 0.00 59 1012.2
20260905173657 37 174 0.0 4.8 0.00 0.00 0.00 56 1012.2
20260905173156 37 34 0.0 4.8 0.00 0.00 0.00 54 1012.2
20260905172157 37 134 1.6 4.8 0.00 0.00 0.00 55 1012.2
20260905171657 37 172 0.0 3.2 0.00 0.00 0.00 57 1012.3
20260905171156 37 18 0.0 3.2 0.00 0.00 0.00 56 1012.3
20260905170657 36 236 1.6 4.8 0.00 0.00 0.00 58 1012.4
20260905170201 36 186 1.6 4.8 0.00 0.00 0.00 57 1012.6
20260905170157 36 143 1.6 4.8 0.00 0.00 0.00 57 1012.5
20260905165155 36 101 0.0 3.2 0.00 0.00 0.00 60 1012.6
20260905164657 36 197 0.0 3.2 0.00 0.00 0.00 58 1012.6
20260905164157 36 107 0.0 3.2 0.00 0.00 0.00 60 1012.8
20260905163701 35 39 0.0 3.2 0.00 0.00 0.00 60 1013.0
20260905163656 36 157 0.0 3.2 0.00 0.00 0.00 60 1012.9
20260905162656 35 20 0.0 3.2 0.00 0.00 0.00 60 1012.9
20260905162157 36 12 0.0 3.2 0.00 0.00 0.00 60 1012.9
20260905161656 35 145 0.0 3.2 0.00 0.00 0.00 65 1013.0
20260905161156 35 236 0.0 3.2 0.00 0.00 0.00 63 1013.0
20260905160701 35 107 0.0 1.6 0.00 0.00 0.00 64 1013.0
20260905160656 35 355 0.0 3.2 0.00 0.00 0.00 62 1013.0
20260905155655 34 107 0.0 3.2 0.00 0.00 0.00 63 1013.1
20260905155157 34 121 0.0 3.2 0.00 0.00 0.00 66 1013.1
20260905154656 34 219 0.0 1.6 0.00 0.00 0.00 66 1013.1
20260905154155 33 232 0.0 4.8 0.00 0.00 0.00 68 1013.1
20260905153655 33 248 0.0 4.8 0.00 0.00 0.00 69 1013.1
20260905153157 33 235 0.0 4.8 0.00 0.00 0.00 68 1013.1
20260905152657 33 49 0.0 4.8 0.00 0.00 0.00 69 1013.0
20260905152157 32 103 0.0 1.6 0.00 0.00 0.00 72 1013.0
20260905151656 32 69 0.0 3.2 0.00 0.00 0.00 68 1013.0
20260905151157 32 71 0.0 3.2 0.00 0.00 0.00 70 1013.1
20260905150655 32 12 0.0 3.2 0.00 0.00 0.00 70 1013.1
20260905150155 32 143 0.0 1.6 0.00 0.00 0.00 72 1013.0
20260905145656 31 276 0.0 3.2 0.00 0.00 0.00 73 1013.0
20260905145155 31 226 0.0 3.2 0.00 0.00 0.00 75 1012.9
20260905144656 30 108 0.0 4.8 0.00 0.00 0.00 76 1013.0
20260905144156 30 165 0.0 4.8 0.00 0.00 0.00 77 1012.9
20260905143656 30 110 0.0 3.2 0.00 0.00 0.00 79 1012.9
20260905143155 29 278 0.0 1.6 0.00 0.00 0.00 80 1013.0
20260905142700 28 95 0.0 1.6 0.00 0.00 0.00 83 1012.9
20260905142655 29 214 0.0 1.6 0.00 0.00 0.00 81 1012.9
20260905141656 28 95 0.0 1.6 0.00 0.00 0.00 85 1012.9
20260905141155 28 95 0.0 1.6 0.00 0.00 0.00 85 1013.0
20260905140656 28 95 0.0 1.6 0.00 0.00 0.00 87 1013.0
20260905140156 28 153 0.0 0.0 0.00 0.00 0.00 88 1013.0
20260905135656 27 154 0.0 0.0 0.00 0.00 0.00 89 1013.0
20260905135156 27 154 0.0 0.0 0.00 0.00 0.00 91 1013.0
20260905134656 27 154 0.0 0.0 0.00 0.00 0.00 92 1012.9
20260905134156 27 153 0.0 0.0 0.00 0.00 0.00 94 1012.9
20260905133656 26 154 0.0 0.0 0.00 0.00 0.00 95 1012.9
20260905133201 26 154 0.0 0.0 0.00 0.00 0.00 97 1012.9
20260905133157 26 154 0.0 0.0 0.00 0.00 0.00 96 1012.9
20260905132811 25 153 0.0 0.0 0.00 0.00 0.00 97 1012.8